Location: Macksville High School
(37.9611°N, 99.9654°W)
Time: 18:21:39
(UTC+00:00)

Cosmos 2278 Rocket - Pass Details

Date: 17 January 2021
Orbit: 839 x 847 km, 71.0° (Epoch: 25 February)

Event Time Altitude Azimuth Distance (km) Brightness Sun altitude
Exits shadow 12:39:45 - 342° (NNW) 3,393 5.0 -14.5°
Reaches altitude 10° 12:42:13 10° 347° (NNW) 2,476 4.4 -14.0°
Maximum altitude 12:47:46 52° 64° (ENE) 1,039 3.0 -13.0°
Drops below altitude 10° 12:53:16 10° 141° (SE) 2,460 5.5 -11.9°
Sets 12:55:46 0° 146° (SE) 3,390 6.2 -11.4°
